Dewpoint
62 52 49 37 26 29 29 36 43 43 46 49 53 53 49 61 57 52 66 67 72 73 74 75 76 75 75 75 76 76 75 76 76 76 75 75 75 74 73 73 73 71 70 69 68 69 69 69 69
51 42 36 30 25 25 29 32 38 40 46 56 58 60 60 61 62 65 64 70 72 73 74 73 76 76 75 75 76 76 75 75 76 76 75 74 74 74 74 73 73 72 71 70 68 68 67 67 66
52 37 25 26 26 25 26 31 35 38 52 53 54 56 60 61 62 64 67 72 74 73 73 73 76 76 75 75 75 76 75 75 75 75 75 74 74 74 75 74 73 73 72 71 69 68 68 67 66
32 26 21 16 18 22 26 22 30 41 45 49 54 56 60 63 60 63 70 73 73 73 74 75 75 75 75 75 75 75 75 74 74 75 75 74 74 75 75 75 74 73 72 72 71 71 70 68 67
26 21 18 21 16 16 17 16 15 40 44 51 57 58 61 61 65 68 70 72 72 72 74 74 75 75 75 75 75 75 75 75 74 74 75 75 75 75 75 75 74 73 72 72 72 71 71 71 70
22 18 13 12 13 16 16 14 20 42 52 58 59 59 61 65 66 67 69 71 73 73 74 74 75 75 75 75 75 76 75 75 74 74 75 75 75 75 75 75 75 74 73 73 72 72 72 72 72
21 16 14 15 14 13 14 14 11 44 49 50 59 59 61 63 64 66 70 72 73 73 73 73 74 74 75 75 75 75 75 75 74 74 75 75 75 75 75 74 73 74 75 75 74 73 73 73 73
18 13 10 10 12 11 15 13 12 41 46 57 53 54 57 58 63 69 71 72 73 73 73 73 73 73 73 73 75 75 75 75 74 74 74 75 75 75 75 74 74 74 73 74 75 75 74 74 73
16 15 10 8 12 10 14 12 12 38 53 51 52 51 53 59 65 68 69 70 71 71 72 73 73 72 72 73 73 75 74 74 74 73 74 73 72 73 74 74 75 75 75 75 75 75 75 74 73
16 13 12 13 12 12 12 13 13 13 38 50 58 60 58 60 65 66 66 67 68 69 70 71 73 72 72 72 72 72 72 72 72 72 71 70 70 71 72 74 74 75 75 75 75 75 75 74 71
14 13 14 13 13 14 13 14 12 11 32 50 57 59 58 61 64 64 65 66 65 68 70 71 71 71 72 71 71 71 71 71 71 70 70 69 69 69 71 70 71 72 74 72 73 73 73 72 71
27 14 13 13 14 14 13 11 9 16 24 47 59 60 60 63 63 64 64 64 65 66 68 69 71 71 71 70 72 71 70 70 70 69 69 68 67 67 68 69 69 70 71 70 69 70 70 71 72
12 12 14 14 16 13 12 9 8 14 56 57 60 61 61 62 62 63 64 65 65 65 65 66 68 70 70 70 71 70 70 70 69 68 68 68 66 65 65 66 68 69 69 69 68 68 68 68 68
17 21 22 22 17 13 10 13 10 17 58 59 60 59 60 61 62 63 64 64 64 63 63 63 65 67 68 68 69 68 68 68 67 67 67 67 65 64 64 65 66 68 68 68 68 66 66 66 67
24 21 21 21 21 20 16 18 17 22 58 58 59 59 54 62 63 62 62 62 62 61 61 61 62 63 63 65 66 66 66 66 66 66 66 66 66 64 62 64 66 66 66 65 65 64 64 65 66
22 21 19 20 21 20 18 17 19 31 52 55 57 56 55 61 63 62 62 61 60 54 61 62 59 61 60 63 64 63 63 64 64 65 65 65 66 66 66 66 66 66 66 65 64 63 63 63 63
22 19 20 20 22 21 19 17 20 21 24 35 49 53 53 56 63 63 62 61 59 58 61 62 61 59 60 61 63 62 62 63 64 64 65 66 66 67 66 67 68 67 67 66 66 64 64 63 64
19 19 22 20 21 21 19 19 21 23 22 20 18 40 47 56 59 63 64 63 62 60 60 62 62 59 60 61 64 64 64 63 63 64 65 66 67 68 68 68 69 68 68 67 66 65 64 63 63
23 23 22 22 23 22 21 22 22 30 43 42 33 33 45 52 61 59 62 63 62 62 62 63 64 61 62 65 66 67 65 67 67 68 67 67 68 68 67 68 68 69 68 67 67 65 64 63 65
24 23 22 23 24 22 22 22 22 41 43 44 45 49 53 56 59 61 59 58 61 62 61 64 64 65 66 64 67 67 67 67 66 66 67 67 68 70 69 68 68 68 67 65 66 66 64 64 65
22 22 22 22 23 23 22 23 22 35 44 48 48 46 52 55 57 58 60 61 62 63 63 64 65 68 68 69 69 69 69 68 68 68 69 70 69 70 70 69 68 65 63 62 62 63 64 64 64
22 24 23 23 24 20 22 18 22 41 44 48 49 50 51 55 60 62 62 61 62 62 64 64 65 65 65 66 66 66 66 66 68 69 68 68 68 68 69 69 65 64 63 63 63 64 62 65 65
22 25 24 24 23 21 20 19 25 43 44 47 49 50 50 51 53 55 58 59 60 61 61 62 63 64 65 66 66 65 64 65 66 65 65 65 66 67 68 66 64 64 64 64 64 62 61 64 66
26 27 28 27 23 20 27 25 27 42 44 46 48 50 51 52 52 53 54 57 57 59 59 60 60 61 62 62 62 62 62 63 62 62 63 63 63 64 65 66 64 64 64 63 62 59 59 60 66
29 28 24 23 22 22 32 29 34 45 47 47 48 49 50 51 51 52 52 53 53 53 57 55 55 56 58 59 60 61 61 61 61 60 60 61 62 62 62 63 63 63 63 63 61 58 57 60 65
32 29 27 24 25 25 33 29 36 47 48 48 48 49 49 50 51 51 52 52 53 52 51 52 49 50 53 55 56 57 57 58 58 58 58 58 59 61 62 62 61 61 63 64 61 59 58 62 65
29 27 33 33 34 32 32 38 43 48 48 49 49 49 48 48 49 50 52 54 54 53 50 51 51 47 48 50 50 52 53 53 53 54 56 57 57 60 61 61 61 61 61 61 62 62 58 61 64
31 36 30 32 25 22 31 34 34 41 45 47 48 49 49 50 50 51 52 53 54 53 53 52 50 45 44 45 49 49 51 50 50 50 52 54 55 57 58 57 59 59 60 60 59 59 59 60 62
25 33 37 35 34 28 26 30 40 39 45 46 47 48 49 50 51 52 53 54 54 53 50 45 45 43 41 42 44 46 48 47 46 47 49 51 52 54 56 57 57 57 57 60 59 58 58 58 58
26 30 34 28 27 31 29 30 42 41 44 46 47 49 48 49 50 50 51 51 52 50 43 43 42 41 42 43 44 44 45 45 44 46 47 48 48 51 53 55 56 57 55 57 59 59 61 60 59
Lifted_Index
6 7 7 4 2 -0 -0 -0 -1 -2 -3 -3 -4 -4 -5 -5 -4 -3 -2 -2 -3 -4 -4 -4 -4 -3 -3 -3 -4 -4 -5 -5 -6 -5 -4 -4 -4 -3 -3 -2 -2 -1 -0 1 2 2 2 3 3
7 7 6 4 1 0 -0 0 -0 -1 -3 -4 -4 -5 -5 -5 -4 -3 -2 -3 -4 -4 -4 -4 -4 -4 -3 -3 -4 -5 -5 -5 -5 -5 -4 -4 -4 -3 -3 -3 -2 -2 -1 0 2 2 3 3 4
7 7 5 2 1 1 1 1 1 -1 -3 -4 -5 -5 -6 -6 -4 -3 -3 -4 -4 -4 -4 -4 -4 -4 -4 -4 -4 -5 -5 -5 -5 -5 -5 -4 -4 -4 -4 -3 -3 -2 -1 -0 1 2 3 3 4
7 5 3 2 1 1 1 2 1 -1 -3 -4 -4 -5 -6 -6 -5 -4 -4 -4 -5 -4 -4 -5 -5 -5 -4 -4 -5 -5 -5 -5 -5 -5 -5 -5 -5 -5 -4 -4 -3 -2 -2 -1 -0 1 1 2 2
6 5 2 1 1 1 2 2 2 -0 -3 -4 -5 -6 -6 -6 -5 -4 -4 -5 -5 -5 -5 -6 -5 -5 -5 -5 -5 -5 -5 -5 -5 -5 -5 -5 -5 -5 -5 -4 -3 -3 -2 -1 -1 -1 -0 0 0
5 4 2 1 1 1 2 3 2 -1 -3 -5 -6 -6 -6 -6 -6 -5 -5 -5 -5 -5 -5 -6 -6 -5 -5 -5 -6 -6 -5 -5 -5 -5 -5 -5 -5 -5 -5 -4 -4 -3 -3 -2 -2 -1 -1 -1 -1
4 3 2 1 1 1 2 3 2 -1 -4 -5 -6 -6 -5 -5 -5 -5 -5 -5 -6 -6 -6 -6 -6 -5 -5 -6 -6 -6 -5 -5 -5 -5 -5 -5 -6 -6 -5 -4 -4 -3 -3 -3 -2 -2 -1 -1 -1
5 4 2 1 1 1 2 3 2 -1 -3 -4 -5 -4 -4 -4 -5 -5 -5 -5 -6 -6 -6 -5 -5 -5 -5 -5 -6 -5 -5 -5 -5 -4 -5 -5 -6 -6 -5 -5 -4 -4 -3 -3 -3 -3 -2 -2 -2
6 4 2 2 1 1 2 3 3 1 -2 -3 -4 -4 -4 -4 -4 -4 -5 -5 -5 -5 -5 -5 -5 -5 -5 -5 -5 -5 -5 -5 -5 -4 -4 -5 -5 -5 -5 -5 -5 -4 -4 -3 -3 -3 -3 -3 -2
5 4 3 3 2 2 2 3 3 2 0 -2 -3 -4 -4 -4 -4 -4 -4 -4 -4 -4 -5 -5 -5 -4 -4 -4 -4 -4 -4 -4 -4 -4 -4 -4 -4 -4 -4 -4 -4 -5 -4 -4 -4 -4 -4 -3 -3
5 4 4 4 4 4 3 3 4 4 2 -1 -3 -4 -4 -4 -3 -3 -3 -3 -3 -4 -4 -5 -5 -4 -4 -4 -4 -4 -4 -4 -4 -4 -3 -3 -2 -2 -3 -3 -3 -4 -4 -3 -3 -3 -3 -3 -3
5 5 5 5 5 5 4 4 4 3 2 -1 -3 -4 -4 -4 -3 -3 -3 -3 -3 -3 -3 -4 -4 -4 -4 -4 -4 -4 -4 -4 -3 -3 -3 -2 -1 -1 -1 -2 -2 -2 -2 -2 -2 -2 -2 -2 -2
6 6 6 6 6 6 5 4 4 3 0 -2 -4 -5 -4 -4 -3 -2 -2 -2 -2 -3 -3 -3 -4 -4 -3 -3 -3 -3 -3 -3 -2 -2 -2 -1 -0 0 0 -0 -1 -1 -2 -2 -1 -1 -0 -0 -1
7 6 6 6 6 5 5 4 4 2 -0 -3 -4 -5 -5 -4 -3 -3 -2 -2 -2 -2 -2 -2 -3 -3 -2 -2 -3 -2 -2 -2 -1 -1 -1 -0 0 1 1 0 -0 -1 -1 -2 -1 -1 -1 -0 0
6 5 5 5 5 5 5 4 4 3 1 -1 -3 -4 -5 -4 -4 -3 -3 -3 -3 -2 -2 -2 -2 -2 -1 -1 -1 -1 -1 -1 -1 -0 -0 -0 -0 0 0 0 -1 -1 -2 -2 -2 -2 -1 -1 -1
5 5 4 5 5 6 6 5 4 4 3 1 -1 -3 -3 -4 -4 -4 -4 -4 -3 -3 -2 -2 -2 -2 -1 -1 -1 -1 -1 -1 -1 -1 -1 -1 -1 -1 -1 -1 -1 -2 -2 -2 -2 -2 -2 -2 -1
4 4 4 4 5 6 6 5 5 5 4 3 1 -0 -1 -2 -3 -4 -4 -4 -4 -3 -2 -2 -2 -2 -2 -2 -2 -2 -1 -1 -2 -2 -2 -2 -2 -2 -2 -2 -2 -2 -3 -3 -3 -3 -2 -2 -2
4 4 4 4 5 6 6 5 5 5 5 4 3 3 2 -0 -2 -3 -4 -4 -4 -3 -2 -2 -2 -2 -2 -3 -3 -3 -3 -3 -3 -3 -3 -3 -3 -3 -3 -3 -3 -3 -3 -4 -4 -3 -3 -2 -2
6 6 5 5 5 5 5 5 5 5 4 4 4 3 2 0 -2 -3 -4 -4 -5 -4 -2 -2 -3 -3 -3 -3 -4 -4 -4 -4 -4 -4 -5 -5 -5 -4 -4 -4 -4 -4 -4 -4 -4 -4 -3 -3 -2
7 6 6 6 6 5 5 5 5 4 3 3 3 2 0 -1 -3 -4 -4 -5 -5 -4 -3 -3 -4 -4 -4 -5 -5 -5 -5 -5 -5 -5 -5 -5 -5 -5 -5 -5 -5 -5 -4 -4 -3 -3 -3 -3 -3
6 6 6 6 5 5 5 5 4 4 3 2 2 0 -1 -2 -3 -4 -5 -5 -5 -5 -4 -4 -5 -6 -6 -6 -6 -6 -5 -5 -5 -6 -5 -5 -6 -6 -6 -6 -6 -6 -5 -4 -3 -2 -3 -3 -4
6 6 6 6 5 5 5 4 4 4 3 2 1 -0 -2 -3 -4 -4 -4 -5 -5 -4 -4 -5 -6 -7 -6 -6 -7 -6 -6 -5 -5 -5 -5 -5 -5 -5 -6 -6 -6 -6 -5 -4 -2 -1 -2 -3 -4
6 6 5 5 5 5 4 5 5 4 3 2 1 -1 -2 -3 -4 -4 -4 -4 -4 -4 -4 -5 -5 -5 -5 -5 -6 -6 -6 -5 -5 -5 -5 -4 -4 -4 -5 -5 -6 -6 -5 -4 -3 -1 -1 -2 -3
5 5 4 4 4 4 4 4 5 4 3 2 1 -1 -2 -3 -4 -4 -3 -3 -3 -2 -3 -3 -3 -3 -4 -4 -4 -5 -5 -5 -5 -4 -4 -4 -4 -4 -4 -4 -5 -5 -5 -4 -3 -2 -1 -1 -2
4 4 3 2 2 2 3 4 4 3 3 2 1 -1 -2 -3 -3 -3 -3 -2 -1 -0 0 0 -0 -0 -1 -1 -1 -1 -2 -2 -2 -2 -2 -2 -2 -2 -2 -2 -3 -4 -4 -4 -3 -3 -2 -2 -2
4 3 2 2 2 2 3 3 3 3 2 2 1 -0 -1 -2 -3 -2 -2 -1 0 1 2 3 3 3 3 3 3 3 2 2 2 2 2 2 1 1 0 -0 -1 -2 -2 -3 -3 -3 -2 -2 -2
3 3 2 2 2 2 3 3 3 2 2 1 1 0 -0 -1 -2 -2 -1 0 2 3 4 4 5 6 6 6 6 6 6 6 5 5 5 4 4 3 2 2 1 0 -1 -2 -3 -3 -3 -2 -2
2 2 2 2 2 2 2 3 2 2 2 2 1 1 0 -0 -1 -1 -1 1 2 3 4 4 5 6 7 7 7 8 8 8 7 7 7 6 5 5 4 4 3 2 1 -0 -1 -2 -2 -2 -2
2 2 2 2 2 2 2 3 3 2 2 2 2 2 1 1 0 -0 -0 1 2 3 3 4 4 5 6 7 8 8 9 9 8 8 8 8 7 7 6 5 4 4 3 2 1 -0 -1 -2 -2
2 2 2 2 2 2 3 3 3 3 3 3 3 2 2 2 1 0 -0 0 1 2 3 4 4 5 5 7 8 9 9 9 8 8 8 9 8 8 7 6 5 5 5 4 2 1 -0 -1 -2